Weather History for Deer Park, WA

Change the Weather History Date:

Sunday, December 9, 2012

  Actual Average Record
Temperature  
Mean Temperature 17 °F 26 °F  
Max Temperature 28 °F 32 °F 38 °F (2010)
Min Temperature 5 °F 20 °F 5 °F (2012)
Degree Days  
Heating Degree Days 48 39  
Month to date heating degree days 277 341  
Since 1 July heating degree days 2014 2344  
Cooling Degree Days 0 0  
Month to date cooling degree days 0 0  
Year to date cooling degree days 232 187  
Moisture  
Dew Point 21 °F    
Average Humidity 92    
Maximum Humidity 100    
Minimum Humidity 83    
Precipitation  
Precipitation 0.07 in 0.10 in 0.64 in (1999)
Month to date precipitation 1.47 0.80  
Year to date precipitation 25.58 20.19  
Sea Level Pressure  
Sea Level Pressure 30.31 in    
Wind  
Wind Speed 1 mph (NNW)    
Max Wind Speed 5 mph    
Max Gust Speed 5 mph    
Visibility 5 miles    
Events Snow    
T = Trace of Precipitation, MM = Missing Value Source: NWS Daily Summary

Daily Weather History Graph

Daily Weather History Graph

Search for Another Location

Airport:

Trip Planner

Search our weather history database for the weather conditions in past years. The results will help you decide how hot, cold, wet, or windy it might be!

Date:

Astronomy

Dec. 09, 2012 Rise Set
Actual Time 7:27 AM PST 3:56 PM PST
Civil Twilight 6:51 AM PST 4:32 PM PST
Nautical Twilight 6:12 AM PST 5:12 PM PST
Astronomical Twilight 5:34 AM PST 5:49 PM PST
Moon 2:52 AM PST (12/9) 1:18 PM PST (12/9)
Length of Visible Light 9h 40m
Length of Day
8h 28m
Waning Crescent, 17% of the Moon is Illuminated
Dec 9
Waning Crescent
Dec 13
New
Dec 19
First Quarter
Dec 28
Full
Jan 4
Last Quarter

Hourly Weather History & Observations

Time (PST) Temp. Windchill Dew Point Humidity Pressure Visibility Wind Dir Wind Speed Gust Speed Precip Events Conditions
12:53 AM 7.0 °F - 3.9 °F 87% 30.38 in 10.0 mi Calm Calm - N/A   Clear
1:24 AM 6.8 °F -0.1 °F 3.2 °F 85% 30.29 in 10.0 mi North 3.5 mph - N/A   Partly Cloudy
1:53 AM 8.1 °F - 6.1 °F 92% 30.41 in 10.0 mi Calm Calm - N/A   Clear
2:53 AM 8.1 °F - 5.0 °F 87% 30.42 in 10.0 mi Calm Calm - N/A   Clear
3:53 AM 9.0 °F - 7.0 °F 92% 30.43 in 10.0 mi Calm Calm - N/A   Clear
4:53 AM 10.0 °F - 7.0 °F 87% 30.45 in 10.0 mi Calm Calm - N/A   Clear
5:53 AM 12.0 °F 5.9 °F 9.0 °F 88% 30.47 in 10.0 mi NNW 3.5 mph - N/A   Clear
6:53 AM 10.0 °F - 7.0 °F 87% 30.49 in 10.0 mi Calm Calm - N/A   Clear
7:53 AM 14.0 °F - 12.0 °F 92% 30.49 in 10.0 mi Calm Calm - N/A   Mostly Cloudy
8:53 AM 17.1 °F - 15.1 °F 92% 30.47 in 10.0 mi Calm Calm - N/A   Mostly Cloudy
9:53 AM 19.9 °F 14.9 °F 18.0 °F 92% 30.50 in 10.0 mi North 3.5 mph - N/A   Overcast
10:43 AM 21.2 °F - 19.4 °F 93% 30.36 in 10.0 mi Calm Calm - N/A   Overcast
10:53 AM 21.9 °F - 19.0 °F 89% 30.47 in 10.0 mi Calm Calm - N/A   Overcast
11:01 AM 21.2 °F - 19.4 °F 93% 30.36 in 1.8 mi Calm Calm - 0.00 in Snow Light Snow
11:13 AM 21.2 °F - 21.2 °F 100% 30.35 in 0.8 mi Calm Calm - 0.01 in Snow Light Snow
11:20 AM 23.0 °F - 21.2 °F 93% 30.34 in 0.8 mi Calm Calm - 0.01 in Snow Light Snow
11:27 AM 21.2 °F - 21.2 °F 100% 30.34 in 1.8 mi Calm Calm - 0.01 in Snow Light Snow
11:35 AM 21.2 °F - 21.2 °F 100% 30.34 in 2.5 mi Calm Calm - 0.01 in Snow Light Snow
11:37 AM 21.2 °F - 21.2 °F 100% 30.33 in 3.0 mi Calm Calm - 0.01 in Snow Light Snow
11:45 AM 23.0 °F - 21.2 °F 93% 30.33 in 6.0 mi Calm Calm - 0.01 in Snow Light Snow
11:53 AM 24.1 °F - 21.9 °F 91% 30.44 in 7.0 mi Calm Calm - 0.01 in   Overcast
12:26 PM 24.8 °F - 21.2 °F 86% 30.32 in 1.8 mi Calm Calm - 0.00 in Snow Light Snow
12:39 PM 24.8 °F 20.5 °F 21.2 °F 86% 30.32 in 1.0 mi NW 3.5 mph - 0.01 in Snow Light Snow
12:53 PM 25.0 °F - 23.0 °F 92% 30.43 in 3.0 mi Calm Calm - 0.01 in Snow Light Snow
1:21 PM 24.8 °F - 21.2 °F 86% 30.29 in 2.5 mi Calm Calm - 0.00 in Snow Light Snow
1:38 PM 24.8 °F - 21.2 °F 86% 30.29 in 6.0 mi Calm Calm - 0.00 in   Overcast
2:40 PM 24.8 °F 20.5 °F 23.0 °F 93% 30.28 in 4.0 mi NW 3.5 mph - 0.01 in   Overcast
2:53 PM 25.0 °F 20.7 °F 23.0 °F 92% 30.39 in 6.0 mi NW 3.5 mph - 0.01 in   Overcast
3:11 PM 24.8 °F - 23.0 °F 93% 30.28 in 2.0 mi Calm Calm - 0.00 in Snow Light Snow
3:18 PM 24.8 °F - 24.8 °F 100% 30.27 in 1.2 mi Calm Calm - 0.00 in Snow Light Snow
3:34 PM 26.6 °F - 24.8 °F 93% 30.27 in 3.0 mi Calm Calm - 0.01 in   Overcast
3:53 PM 26.1 °F - 24.1 °F 92% 30.36 in 9.0 mi Calm Calm - 0.02 in   Overcast
4:07 PM 26.6 °F - 24.8 °F 93% 30.23 in 9.0 mi Calm Calm - N/A   Overcast
4:33 PM 26.6 °F - 24.8 °F 93% 30.23 in 8.0 mi Calm Calm - N/A   Overcast
4:43 PM 26.6 °F - 24.8 °F 93% 30.23 in 6.0 mi Calm Calm - N/A   Overcast
4:53 PM 26.1 °F - 25.0 °F 96% 30.33 in 7.0 mi Calm Calm - N/A   Overcast
5:46 PM 26.6 °F - 24.8 °F 93% 30.22 in 3.0 mi Calm Calm - N/A   Overcast
5:53 PM 26.1 °F - 26.1 °F 100% 30.32 in 3.0 mi Calm Calm - N/A   Overcast
6:27 PM 26.6 °F - 26.6 °F 100% 30.22 in 2.5 mi Calm Calm - N/A   Overcast
6:49 PM 26.6 °F - 26.6 °F 100% 30.22 in 2.5 mi Calm Calm - N/A   Overcast
6:50 PM 26.6 °F - 26.6 °F 100% 30.22 in 2.5 mi Calm Calm - N/A   Overcast
6:53 PM 27.0 °F - 26.1 °F 96% 30.32 in 2.0 mi Calm Calm - N/A   Overcast
7:05 PM 26.6 °F - 26.6 °F 100% 30.20 in 1.5 mi Calm Calm - 0.00 in Snow Light Snow
7:26 PM 26.6 °F - 26.6 °F 100% 30.19 in 2.0 mi Calm Calm - 0.01 in Snow Light Snow
7:41 PM 26.6 °F - 26.6 °F 100% 30.19 in 2.0 mi Calm Calm - 0.01 in Snow Light Snow
7:44 PM 26.6 °F - 26.6 °F 100% 30.19 in 1.8 mi Calm Calm - 0.01 in Snow Light Snow
7:53 PM 27.0 °F - 26.1 °F 96% 30.29 in 1.8 mi Calm Calm - 0.01 in Snow Light Snow
8:53 PM 27.0 °F 23.0 °F 26.1 °F 96% 30.29 in 1.5 mi North 3.5 mph - 0.01 in Snow Light Snow
9:13 PM 28.4 °F - 26.6 °F 93% 30.19 in 2.5 mi Calm Calm - 0.00 in Snow Light Snow
9:27 PM 26.6 °F - 26.6 °F 100% 30.18 in 3.0 mi Calm Calm - 0.00 in   Overcast
9:53 PM 27.0 °F 23.0 °F 26.1 °F 96% 30.27 in 4.0 mi WNW 3.5 mph - 0.00 in   Overcast
10:08 PM 26.6 °F - 26.6 °F 100% 30.18 in 4.0 mi Calm Calm - N/A   Overcast
10:48 PM 26.6 °F 21.2 °F 26.6 °F 100% 30.19 in 5.0 mi NNW 4.6 mph - N/A   Overcast
10:53 PM 27.0 °F - 26.1 °F 96% 30.27 in 6.0 mi Calm Calm - N/A   Overcast
11:24 PM 26.6 °F - 26.6 °F 100% 30.17 in 7.0 mi Calm Calm - N/A   Overcast
11:53 PM 27.0 °F - 26.1 °F 96% 30.25 in 5.0 mi Calm Calm - N/A   Overcast